This is the latest recevied weather packets stored in our database for station/object WA4TPR. If no packets are shown the sender has not sent any weather packets the latest 10 day(s).
| Time | Temp. | Humidity | Pressure | Rain* | Wind** | Luminosity | Snow |
|---|---|---|---|---|---|---|---|
| 1778124546 | 23.89° C | 76% | 1020.5 hPa | 0 mm | - | 0 W/m² | - |
| 1778124242 | 23.89° C | 75% | 1020.6 hPa | 0 mm | - | 0 W/m² | - |
| 1778123938 | 24.44° C | 75% | 1020.6 hPa | 0 mm | - | 0 W/m² | - |
| 1778123635 | 24.44° C | 74% | 1020.5 hPa | 0 mm | - | 0 W/m² | - |
| 1778123332 | 25° C | 73% | 1020.3 hPa | 0 mm | - | 0 W/m² | - |
| 1778123029 | 25° C | 73% | 1020.5 hPa | 0 mm | - | 0 W/m² | - |
| 1778122726 | 25° C | 72% | 1020.4 hPa | 0 mm | - | 0 W/m² | - |
| 1778122423 | 25° C | 72% | 1020.6 hPa | 0 mm | - | 0 W/m² | - |
| 1778122121 | 25° C | 72% | 1020.5 hPa | 0 mm | - | 0 W/m² | - |
| 1778121818 | 25° C | 71% | 1020.4 hPa | 0 mm | - | 0 W/m² | - |
| 1778121514 | 25° C | 70% | 1020.4 hPa | 0 mm | - | 0 W/m² | - |
| 1778121211 | 25.56° C | 70% | 1020.6 hPa | 0 mm | - | 0 W/m² | - |
| 1778120908 | 25.56° C | 69% | 1020.7 hPa | 0 mm | - | 0 W/m² | - |
| 1778120604 | 25.56° C | 70% | 1020.7 hPa | 0 mm | - | 0 W/m² | - |
| 1778120301 | 25.56° C | 69% | 1020.5 hPa | 0 mm | - | 0 W/m² | - |
| 1778119996 | 26.11° C | 67% | 1020.5 hPa | 0 mm | - | 0 W/m² | - |
| 1778119694 | 26.67° C | 67% | 1020.6 hPa | 0 mm | - | 0 W/m² | - |
| 1778119391 | 26.67° C | 66% | 1020.5 hPa | 0 mm | - | 0 W/m² | - |
| 1778119088 | 26.67° C | 65% | 1020.6 hPa | 0 mm | - | 0 W/m² | - |
| 1778118785 | 26.67° C | 65% | 1020.6 hPa | 0 mm | - | 0 W/m² | - |
| 1778118482 | 26.67° C | 64% | 1020.6 hPa | 0 mm | - | 0 W/m² | - |
| 1778118178 | 27.22° C | 63% | 1020.4 hPa | 0 mm | - | 0 W/m² | - |
| 1778117875 | 27.78° C | 62% | 1020.1 hPa | 0 mm | - | 0 W/m² | - |
| 1778117573 | 27.78° C | 62% | 1020.2 hPa | 0 mm | - | 0 W/m² | - |
| 1778117270 | 27.22° C | 64% | 1020 hPa | 0 mm | - | 0 W/m² | - |
* Rain latest hour (hover to see other rain measurements)
** Current wind speed in m/s (hover to see current wind gust speed)